THORAD DELTA 1 DEB, 42617

Orbit data source: Space-Track

THORAD DELTA 1 DEB, 42617 is space debris in SSO originally from a launch on Fri, 15 Nov 1974 UTC launched from the Air Force Western Test Range (AFWTR). Debris objects in space refer to the collection of defunct objects orbiting the Earth. Examples of debris include non-operational satellites, rocket bodies, and fragments generated from explosions, collisions, or faulty payload assembly.

Loading next visibility...
Identifier
42617, 1974-089GJ
Orbit
SSO
Country
Flag of USUS
Related business
Manufacturer
Unknown
Mission
Spacecraft
Bus & Motor
Unknown
Mass
Unknown
Launch date (UTC)
1974-11-15 (52 years ago)
Launch vehicle
Unknown
Launch site
Air Force Western Test Range (AFWTR)
Object type
Payload
Rocket body
Debris
Shape & HBR
Unknown shape, 0.1 m
Radar Cross Section
Medium (>0.1 m² and <1 m²)

Expand to show TLE details & history
Last TLE update: 1 month ago

TLE from 1 month ago
0 THORAD DELTA 1 DEB
1 42617U 74089GJ  26132.87744664  .00000022  00000-0  56898-3 0  9991
2 42617 101.4675 173.5623 0180610 243.2229 297.8325 12.19453814555361
Epoch: 2026-05-12T21:03Z
TLE epoch observation values (Epoch: 2026-05-12T21:03:31.389Z)
Latitude
0.67809°
Longitude
167.17289°
Altitude
1,532.196 km
Speed
7.129 km/s
True Right ascension
23h 34m 47s
True Declination
0° 40' 28"
Sunlit
Object was in daylight at epoch
Visualization orbit readout
Latitude
Unknown
Longitude
Unknown
Altitude
Unknown
Speed
Unknown
Apparent Right ascension
Unknown
Apparent Declination
Unknown
Sunlit
N/A
Visualization observer readout
Local Sidereal Time
12:08:49
Azimuth
Unknown
Elevation
Unknown
Doppler factor
Unknown
Orbital elements
Apogee altitude
1,736.449 km
Perigee altitude
1,448.534 km
Semi-major axis
7,970.628 km
Eccentricity
0.01806
Inclination
101.4675°
RAAN
173.5623°
Arg. of periapsis
243.2229°
True anomaly
295.98312°
Mean anomaly
297.8325°
Eccentric anomaly
296.90973°
Mean motion
3.05003 °/min
Orbital period
118.03 mins
BSTAR
0.00056898

Documentation

Showing up to 5 results
|